SCP
0 0 0 0 0 0 0 0 0 0 0 0 0 0 0 0 0 0 0 0 0 0 0 0 0 0 0 0 0 0 0 0 0 0 0 0 0 0 0 0 0 0 0
0 0 0 0 0 0 0 0 0 0 0 0 0 0 0 0 0 0 0 0 0 0 0 0 0 0 0 0 0 0 0 0 0 0 0 0 0 0 0 0 0 0 0
0 0 0 0 0 0 0 0 0 0 0 0 0 0 0 0 0 0 0 0 0 0 0 0 0 0 0 0 0 0 0 0 0 0 0 0 0 0 0 0 0 0 0
0 0 0 0 0 0 0 0 0 0 0 0 0 0 0 0 0 0 0 0 0 0 0 0 0 0 0 0 0 0 0 0 0 0 0 0 0 0 0 0 0 0 0
0 0 0 0 0 0 0 0 0 0 0 0 0 0 0 0 0 0 0 0 0 0 0 0 0 0 0 0 0 0 0 0 0 0 0 0 0 0 0 0 0 0 0
0 0 0 0 0 0 0 0 0 0 0 0 0 0 0 0 0 0 0 0 0 0 0 0 0 0 0 0 0 0 0 0 0 0 0 0 0 0 0 0 0 0 0
0 0 0 0 0 0 0 0 0 0 0 0 0 0 0 0 0 0 0 0 0 0 0 0 0 0 0 0 0 0 0 0 0 0 0 0 0 0 0 0 0 0 0
0 0 0 0 0 0 0 0 0 0 0 0 0 0 0 0 0 0 0 0 0 0 0 0 0 0 0 0 0 0 0 0 0 0 0 0 0 0 0 0 0 0 0
0 0 0 0 0 0 0 0 0 0 0 0 0 0 0 0 0 0 0 0 0 0 0 0 0 0 0 0 0 0 0 0 0 0 0 0 0 0 0 0 0 0 0
0 0 0 0 0 0 0 0 0 0 0 0 0 0 0 0 0 0 0 0 0 0 0 0 0 0 0 0 0 0 0 0 0 0 0 0 0 0 0 0 0 0 0
0 0 0 0 0 0 0 0 0 0 0 0 0 0 0 0 0 0 0 0 0 0 0 0 0 0 0 0 0 0 0 0 0 0 0 0 0 0 0 0 0 0 0
0 0 0 0 0 0 0 0 0 0 0 0 0 0 0 0 0 0 0 0 0 0 0 0 0 0 0 0 0 0 0 0 0 0 0 0 0 0 0 0 0 0 0
0 0 0 0 0 0 0 0 0 0 0 0 0 0 0 0 0 0 0 0 0 0 0 0 0 0 0 0 0 0 0 0 0 0 0 0 0 0 0 0 0 0 0
0 0 0 0 0 0 0 0 0 0 0 0 0 0 0 0 0 0 0 0 0 0 0 0 0 0 0 0 0 0 0 0 0 0 0 0 0 0 0 0 0 0 0
0 0 0 0 0 0 0 0 0 0 0 0 0 0 0 0 0 0 0 0 0 0 0 0 0 0 0 0 0 0 0 0 0 0 0 0 0 0 0 0 0 0 0
0 0 0 0 0 0 0 0 0 0 0 0 0 0 0 0 0 0 0 0 0 0 0 0 0 0 0 0 0 0 0 0 0 0 0 0 0 0 0 0 0 0 0
0 0 0 0 0 0 0 0 0 0 0 0 0 0 0 0 0 0 0 0 0 0 0 0 0 0 0 0 0 0 0 0 0 0 0 0 0 0 0 0 0 0 0
0 0 0 0 0 0 0 0 0 0 0 0 0 0 0 0 0 0 0 0 0 0 0 0 0 0 0 0 0 0 0 0 0 0 0 0 0 0 0 0 0 0 0
0 0 0 0 0 0 0 0 0 0 0 0 0 0 0 0 0 0 0 0 0 0 0 0 0 0 0 0 0 0 0 0 0 0 0 0 0 0 0 0 0 0 0
0 0 0 0 0 0 0 0 0 0 0 0 0 0 0 0 0 0 0 0 0 0 0 0 0 0 0 0 0 0 0 0 0 0 0 0 0 0 0 0 0 0 0
0 0 0 0 0 0 0 0 0 0 0 0 0 0 0 0 0 0 0 0 0 0 0 0 0 0 0 0 0 0 0 0 0 0 0 0 0 0 0 0 0 0 0
0 0 0 0 0 0 0 0 0 0 0 0 0 0 0 0 0 0 0 0 0 0 0 0 0 0 0 0 0 0 0 0 0 0 0 0 0 0 0 0 0 0 0
0 0 0 0 0 0 0 0 0 0 0 0 0 0 0 0 0 0 0 0 0 0 0 0 0 0 0 0 0 0 0 0 0 0 0 0 0 0 0 0 0 0 0
0 0 0 0 0 0 0 0 0 0 0 0 0 0 0 0 0 0 0 0 0 0 0 0 0 0 0 0 0 0 0 0 0 0 0 0 0 0 0 0 0 0 0
0 0 0 0 0 0 0 0 0 0 0 0 0 0 0 0 0 0 0 0 0 0 0 0 0 0 0 0 0 0 0 0 0 0 0 0 0 0 0 0 0 0 0
0 0 0 0 0 0 0 0 0 0 0 0 0 0 0 0 0 0 0 0 0 0 0 0 0 0 0 0 0 0 0 0 0 0 0 0 0 0 0 0 0 0 0
Wind_Speed
2 2 3 3 5 6 7 7 7 8 9 9 9 10 10 11 10 10 10 10 10 10 11 11 12 13 12 12 12 12 12 12 11 11 12 12 13 13 12 10 9 10 12
3 3 4 3 5 6 7 7 8 8 8 9 9 9 10 10 10 10 10 10 10 10 10 11 12 12 12 12 12 12 12 11 11 10 10 11 12 12 12 10 10 9 11
3 4 5 4 6 7 7 7 8 8 8 8 9 9 9 9 9 9 10 10 10 10 10 11 11 11 12 12 12 12 12 12 11 8 5 7 9 11 11 10 10 11 11
4 4 5 5 7 7 7 7 8 8 8 8 8 8 9 9 9 9 9 9 10 10 10 10 11 11 11 11 11 11 11 11 9 5 5 7 7 10 9 9 9 9 10
5 4 5 6 7 8 7 7 8 7 7 7 8 8 8 9 9 9 9 9 9 9 10 10 10 11 11 11 10 10 10 9 6 4 7 6 6 9 9 9 8 8 9
5 5 6 6 7 8 8 7 7 7 7 7 8 8 8 8 8 9 9 9 9 9 9 9 10 10 10 10 10 10 9 7 4 6 6 6 6 8 8 9 8 7 7
5 5 5 6 7 7 8 8 7 7 7 7 7 7 7 8 8 8 8 9 9 9 9 9 9 10 10 10 9 9 8 5 4 5 5 5 7 8 8 8 7 7 7
5 5 5 6 6 7 7 7 7 7 7 7 6 6 7 7 8 8 8 8 8 9 9 9 9 9 9 9 9 8 7 4 4 5 4 5 7 7 7 7 7 7 7
5 5 4 4 5 6 6 7 7 7 8 8 7 6 6 7 8 9 8 8 8 9 9 9 9 8 8 8 8 8 7 4 3 3 4 4 6 6 7 7 7 7 7
5 4 4 4 4 4 5 7 7 7 8 8 9 8 6 6 7 8 8 8 8 8 8 8 8 8 8 8 8 7 5 1 3 3 3 5 6 5 6 6 6 6 6
4 3 3 3 3 3 4 5 6 6 7 7 7 8 5 4 4 5 7 7 7 7 8 8 8 8 7 7 7 6 2 1 3 3 3 6 5 5 5 5 5 5 5
4 3 2 2 2 3 3 3 3 3 3 4 4 4 3 3 3 4 7 7 7 7 8 8 7 5 3 3 4 2 1 2 2 3 4 7 5 5 5 5 5 4 4
4 3 3 3 2 2 2 2 2 2 2 3 4 4 3 3 3 2 2 3 3 4 4 4 3 2 2 2 2 2 2 2 2 2 5 7 5 4 4 5 5 4 4
4 4 3 3 3 2 2 2 2 2 2 2 3 3 2 2 2 2 2 2 2 2 2 2 1 2 2 2 2 2 3 2 2 2 4 8 7 6 4 4 4 4 5
4 4 3 3 3 2 2 2 2 2 2 2 2 2 2 2 2 2 2 2 2 2 2 2 1 2 2 2 2 2 2 2 2 2 2 7 7 7 6 5 5 4 5
4 4 3 3 3 3 2 2 2 2 2 2 2 2 2 2 1 2 2 2 2 2 1 1 2 1 1 2 2 2 2 2 2 2 2 3 6 7 7 6 5 5 5
4 4 4 3 3 3 2 2 2 2 2 2 2 2 2 2 2 2 2 2 2 2 1 1 2 1 1 1 2 2 2 2 1 2 2 2 2 5 7 7 7 7 6
4 4 4 3 3 3 3 2 1 2 2 2 2 2 2 2 1 1 1 1 1 1 1 1 1 1 0 1 1 1 1 1 1 1 2 2 2 2 3 7 7 7 7
5 4 4 4 4 3 3 2 2 2 2 1 1 1 1 1 1 1 1 1 1 1 1 1 0 0 0 1 1 1 1 1 1 1 2 2 3 3 2 4 6 7 7
4 4 5 4 4 4 3 2 2 2 2 1 1 1 2 1 1 1 1 1 1 1 1 1 1 0 1 1 0 0 0 0 0 1 1 1 2 2 3 3 2 3 6
4 4 4 5 5 4 3 3 2 2 2 2 1 1 1 1 1 1 1 1 1 1 1 1 1 1 1 0 1 0 1 1 1 0 0 0 1 2 2 3 3 3 2
4 5 4 4 5 4 3 2 2 2 1 1 1 1 1 1 1 1 1 1 1 1 1 1 1 0 0 0 1 1 1 2 2 2 1 1 1 1 1 2 3 3 3
4 4 4 4 4 5 4 3 3 2 2 2 2 1 1 2 1 1 1 1 1 1 1 1 1 2 1 1 1 2 2 2 1 2 2 2 1 1 2 2 2 3 4
4 3 4 4 4 4 4 4 5 3 3 3 2 2 2 2 2 2 2 2 2 1 2 2 2 2 2 2 1 1 2 2 2 2 2 2 2 2 2 2 2 3 3
3 3 3 4 3 3 4 4 5 4 3 2 2 2 2 2 2 2 2 2 2 2 2 2 2 3 2 2 2 2 2 2 3 3 3 2 2 2 3 3 3 3 3
2 3 3 3 3 3 3 4 4 4 4 4 3 3 2 2 2 3 3 3 3 2 3 2 3 3 3 3 2 2 2 2 2 3 3 4 3 2 3 3 3 3 3
Wind_Direction
144 135 90 82 105 101 94 94 90 87 90 89 90 92 90 87 83 80 80 80 79 78 80 81 81 81 82 80 79 80 79 77 78 79 80 81 80 81 79 75 76 79 74
144 139 108 87 104 104 98 96 88 85 88 92 91 91 92 90 88 83 80 80 77 78 79 79 79 79 81 80 79 79 78 76 76 78 81 87 83 80 78 72 62 74 76
132 134 127 96 101 100 98 96 91 87 87 90 93 90 92 92 90 85 82 79 78 79 79 80 80 80 79 79 78 79 78 76 75 75 83 86 85 79 77 74 74 76 74
125 122 113 92 99 99 95 96 94 90 88 88 90 91 90 91 88 85 85 81 80 82 80 80 81 81 80 79 78 78 79 76 70 65 78 75 79 76 74 73 75 76 73
121 117 105 91 95 92 91 90 93 93 93 91 90 89 90 89 85 82 82 82 81 81 81 82 85 86 83 82 81 81 79 75 66 67 72 71 73 75 71 71 75 77 76
115 111 105 87 93 91 88 85 87 90 92 91 88 87 87 88 84 80 78 79 79 80 82 83 84 86 84 84 82 80 80 73 81 73 69 67 70 72 70 70 74 78 77
113 107 104 83 87 87 88 85 84 86 88 91 91 91 88 87 86 82 79 78 80 81 82 83 82 81 80 81 81 79 75 58 68 74 66 63 62 66 69 69 67 71 71
114 109 108 89 83 83 84 81 80 81 82 85 89 94 93 89 87 84 82 81 82 82 81 82 83 77 78 76 75 74 69 46 78 74 69 66 58 60 65 67 64 65 67
114 114 111 112 100 86 82 77 76 75 78 77 76 84 90 88 88 84 81 81 81 81 79 79 80 78 76 76 73 71 66 31 60 73 72 69 57 58 70 68 66 62 61
109 111 110 114 113 112 105 79 71 72 74 75 68 65 76 85 90 85 81 74 80 80 79 77 78 77 74 74 70 68 61 38 63 69 64 62 56 62 71 73 69 65 62
114 111 115 117 116 114 109 94 86 79 74 81 78 70 79 94 95 89 71 69 74 79 81 79 77 76 74 76 66 57 59 54 60 52 54 47 53 57 62 66 70 67 63
150 138 127 120 115 114 106 110 103 91 88 85 86 87 80 80 74 72 75 66 70 78 83 78 76 82 72 81 77 59 60 49 50 49 46 38 43 47 54 58 61 62 62
168 153 144 137 126 116 109 108 101 97 90 86 81 79 84 83 87 78 85 85 82 82 82 86 92 77 65 57 58 53 42 40 38 46 44 36 33 40 53 57 56 58 50
170 164 153 149 142 133 119 109 107 107 101 86 80 73 81 81 78 80 75 69 61 64 66 65 63 81 76 67 58 51 44 35 30 37 47 37 32 34 43 46 48 51 46
178 171 166 161 154 147 137 120 109 102 92 89 79 71 64 80 84 83 71 66 60 54 61 55 47 71 76 64 50 42 41 35 30 32 60 45 30 31 37 41 38 41 44
188 179 173 167 161 154 142 136 128 114 105 96 84 70 67 70 77 84 85 68 60 51 45 47 44 46 55 49 40 30 27 28 28 29 39 64 45 33 32 31 29 26 27
193 183 177 172 160 152 142 138 127 123 123 113 98 90 84 75 80 79 80 78 62 58 59 60 55 39 57 53 40 21 16 24 20 32 35 29 50 47 33 24 19 17 17
196 184 175 165 163 155 147 137 129 128 128 122 116 114 106 95 93 104 94 81 69 70 71 81 67 53 67 53 31 19 2 27 33 37 44 37 26 20 34 27 17 13 10
197 186 176 169 167 159 149 144 131 126 125 127 129 124 118 117 128 136 118 97 104 93 77 83 89 6 17 14 5 3 5 7 58 73 61 45 33 15 7 30 23 17 9
194 188 181 170 169 159 150 149 142 137 133 129 131 130 133 142 157 153 136 119 125 125 104 94 91 61 35 357 339 355 22 320 191 74 52 53 38 24 18 6 358 16 15
185 185 184 177 172 167 164 169 173 173 165 152 141 136 152 159 166 172 160 145 154 152 139 134 118 123 68 359 262 260 172 204 229 183 31 27 38 25 24 8 351 345 352
194 191 189 185 180 184 185 181 187 176 170 157 142 151 172 179 178 187 182 166 171 174 167 157 152 200 167 259 281 273 250 207 201 221 226 239 283 346 355 354 347 343 339
201 199 199 195 185 188 183 172 156 153 157 168 174 185 192 193 190 196 195 182 174 186 192 189 196 213 231 241 282 284 272 265 285 206 222 242 279 294 313 326 330 332 329
203 198 202 197 187 180 178 188 187 189 194 196 189 191 188 189 197 205 206 202 190 196 206 202 209 222 227 230 239 271 294 311 276 267 227 234 269 282 300 301 306 315 313
195 190 192 190 183 179 187 195 200 200 199 183 179 186 191 191 200 204 212 211 209 209 212 209 213 222 229 237 245 248 244 253 264 269 268 268 272 271 288 287 287 298 300
181 182 178 176 175 180 191 200 202 200 196 192 194 189 197 202 205 209 217 217 216 215 214 216 216 223 233 237 239 245 250 247 248 257 272 282 286 287 289 278 274 287 294